Latest Coastal Weather Observations for Esperance Harbour

IDW60701

Issued at 3:22 pm WST Sunday 31 July 2016 (issued every 10 minutes, with the page automatically refreshed every 10 minutes)

About coastal observations | Map of coastal stations | Coastal observations for WA | Marine services | Other Formats
Station Details ID: 109504 Name: ESPERANCE NTC AWS Lat: -33.87 Lon: 121.90 Height: 0.0 m
Data from the previous 72 hours. | See also: Recent months for locations in Western Australia
Date/Time
WST
Temp
°C
Wind Pressure Rain since
9am
mm
Weather Cloud Vis
km
Sea
Height
m
Swell
Dir  Spd
kts
Gust
kts
hPa Trend Height
m
Period
s
Dir
31/03:00pm 11.0 - - - 1015.0 - - - - - - - - -
31/02:30pm 10.3 - - - 1015.0 - - - - - - - - -
31/02:00pm 11.9 - - - 1013.5 - - - - - - - - -
31/01:30pm 12.0 - - - 1013.3 - - - - - - - - -
31/01:00pm 12.3 - - - 1012.6 - - - - - - - - -
31/12:30pm 11.4 - - - 1012.8 - - - - - - - - -
31/12:00pm 11.8 - - - 1012.6 - - - - - - - - -
31/11:30am 13.9 - - - 1012.5 - - - - - - - - -
31/11:00am 14.8 - - - 1011.5 - - - - - - - - -
31/10:30am 15.0 - - - 1011.3 - - - - - - - - -
31/10:00am 14.6 - - - 1010.9 - - - - - - - - -
31/09:30am 14.5 - - - 1010.5 - - - - - - - - -
31/09:00am 14.4 - - - 1010.3 - - - - - - - - -
31/08:30am 13.8 - - - 1009.7 - - - - - - - - -
31/08:00am 12.9 - - - 1009.3 - - - - - - - - -
31/07:30am 12.4 - - - 1009.1 - - - - - - - - -
31/07:00am 12.2 - - - 1009.0 - - - - - - - - -
31/06:30am 12.2 - - - 1008.8 - - - - - - - - -
31/06:00am 12.4 - - - 1008.6 - - - - - - - - -
31/05:30am 12.4 - - - 1008.6 - - - - - - - - -
31/05:00am 12.5 - - - 1008.4 - - - - - - - - -
31/04:30am 12.4 - - - 1008.8 - - - - - - - - -
31/04:00am 12.2 - - - 1008.8 - - - - - - - - -
31/03:30am 12.4 - - - 1008.8 - - - - - - - - -
31/03:00am 12.3 - - - 1009.0 - - - - - - - - -
31/02:30am 12.6 - - - 1009.3 - - - - - - - - -
31/02:00am 12.7 - - - 1009.5 - - - - - - - - -
31/01:30am 13.0 - - - 1009.8 - - - - - - - - -
31/01:00am 13.2 - - - 1009.9 - - - - - - - - -
31/12:30am 13.3 - - - 1010.2 - - - - - - - - -
31/12:00am 13.2 - - - 1010.6 - - - - - - - - -
 
Date/Time
WST
Temp
°C
Wind Pressure Rain since
9am
mm
Weather Cloud Vis
km
Sea
Height
m
Swell
Dir  Spd
kts
Gust
kts
hPa Trend Height
m
Period
s
Dir
30/11:30pm 13.3 - - - 1010.9 - - - - - - - - -
30/11:00pm 13.9 - - - 1011.3 - - - - - - - - -
30/10:30pm 14.7 - - - 1011.6 - - - - - - - - -
30/10:00pm 14.6 - - - 1011.9 - - - - - - - - -
30/09:30pm 13.4 - - - 1012.0 - - - - - - - - -
30/09:00pm 13.3 - - - 1012.2 - - - - - - - - -
30/08:30pm 13.6 - - - 1012.2 - - - - - - - - -
30/08:00pm 12.9 - - - 1012.2 - - - - - - - - -
30/07:30pm 13.7 - - - 1012.2 - - - - - - - - -
30/07:00pm 14.4 - - - 1012.1 - - - - - - - - -
30/06:30pm 15.1 - - - 1011.7 - - - - - - - - -
30/06:00pm 16.0 - - - 1011.6 - - - - - - - - -
30/05:30pm 16.6 - - - 1011.4 - - - - - - - - -
30/05:00pm 17.7 - - - 1011.0 - - - - - - - - -
30/04:30pm 18.6 - - - 1010.9 - - - - - - - - -
30/04:00pm 18.6 - - - 1010.9 - - - - - - - - -
30/03:30pm 19.0 - - - 1011.1 - - - - - - - - -
30/03:00pm 18.4 - - - 1011.3 - - - - - - - - -
30/02:30pm 18.5 - - - 1011.6 - - - - - - - - -
30/02:00pm 18.0 - - - 1011.7 - - - - - - - - -
30/01:30pm 17.9 - - - 1012.2 - - - - - - - - -
30/01:00pm 17.5 - - - 1012.4 - - - - - - - - -
30/12:30pm 17.6 - - - 1013.1 - - - - - - - - -
30/12:00pm 17.1 - - - 1013.6 - - - - - - - - -
30/11:30am 17.0 - - - 1014.1 - - - - - - - - -
30/11:00am 16.9 - - - 1014.5 - - - - - - - - -
30/10:30am 16.1 - - - 1014.8 - - - - - - - - -
30/10:00am 15.7 - - - 1014.9 - - - - - - - - -
30/09:30am 15.3 - - - 1014.9 - - - - - - - - -
30/09:00am 14.9 - - - 1014.9 - - - - - - - - -
30/08:30am 14.4 - - - 1014.6 - - - - - - - - -
30/08:00am 14.0 - - - 1014.4 - - - - - - - - -
30/07:30am 13.7 - - - 1014.2 - - - - - - - - -
30/07:00am 13.7 - - - 1013.9 - - - - - - - - -
30/06:30am 14.0 - - - 1013.5 - - - - - - - - -
30/06:00am 14.8 - - - 1012.9 - - - - - - - - -
30/05:30am 15.2 - - - 1012.6 - - - - - - - - -
30/05:00am 16.0 - - - 1012.1 - - - - - - - - -
30/04:30am 16.2 - - - 1011.7 - - - - - - - - -
30/04:00am 16.1 - - - 1011.5 - - - - - - - - -
30/03:30am 16.5 - - - 1010.9 - - - - - - - - -
30/03:00am 18.4 - - - 1010.3 - - - - - - - - -
30/02:30am 18.6 - - - 1009.7 - - - - - - - - -
30/02:00am 18.5 - - - 1009.4 - - - - - - - - -
30/01:30am 18.3 - - - 1009.2 - - - - - - - - -
30/01:00am 18.1 - - - 1009.0 - - - - - - - - -
30/12:30am 18.2 - - - 1008.7 - - - - - - - - -
30/12:00am 18.4 - - - 1008.5 - - - - - - - - -
 
Date/Time
WST
Temp
°C
Wind Pressure Rain since
9am
mm
Weather Cloud Vis
km
Sea
Height
m
Swell
Dir  Spd
kts
Gust
kts
hPa Trend Height
m
Period
s
Dir
29/11:30pm 19.3 - - - 1008.7 - - - - - - - - -
29/11:00pm 19.8 - - - 1008.7 - - - - - - - - -
29/10:30pm 20.0 - - - 1009.0 - - - - - - - - -
29/10:00pm 20.2 - - - 1008.8 - - - - - - - - -
29/09:30pm 19.1 - - - 1009.2 - - - - - - - - -
29/09:00pm 18.7 - - - 1009.2 - - - - - - - - -
29/08:30pm 19.5 - - - 1009.1 - - - - - - - - -
29/08:00pm 19.5 - - - 1008.9 - - - - - - - - -
29/07:30pm 17.9 - - - 1008.4 - - - - - - - - -
29/07:00pm 18.1 - - - 1008.3 - - - - - - - - -
29/06:30pm 18.4 - - - 1008.5 - - - - - - - - -
29/06:00pm 17.9 - - - 1008.4 - - - - - - - - -
29/05:30pm 18.2 - - - 1008.6 - - - - - - - - -
29/05:00pm 18.8 - - - 1008.7 - - - - - - - - -
29/04:30pm 19.6 - - - 1008.9 - - - - - - - - -
29/04:00pm 19.7 - - - 1009.4 - - - - - - - - -
29/03:30pm 19.6 - - - 1009.7 - - - - - - - - -
29/03:00pm 19.6 - - - 1010.0 - - - - - - - - -
29/02:30pm 21.6 - - - 1009.8 - - - - - - - - -
29/02:00pm 21.4 - - - 1009.9 - - - - - - - - -
29/01:30pm 22.3 - - - 1010.2 - - - - - - - - -
29/01:00pm 21.4 - - - 1010.8 - - - - - - - - -
29/12:30pm 21.6 - - - 1011.8 - - - - - - - - -
29/12:00pm 20.4 - - - 1012.6 - - - - - - - - -
29/11:30am 18.5 - - - 1013.3 - - - - - - - - -
29/11:00am 18.0 - - - 1014.2 - - - - - - - - -
29/10:30am 15.6 - - - 1015.2 - - - - - - - - -
29/10:00am 14.3 - - - 1015.9 - - - - - - - - -
29/09:30am 14.0 - - - 1016.6 - - - - - - - - -
29/09:00am 12.8 - - - 1016.8 - - - - - - - - -
29/08:30am 12.4 - - - 1017.1 - - - - - - - - -
29/08:00am 11.7 - - - 1017.3 - - - - - - - - -
29/07:30am 11.2 - - - 1017.7 - - - - - - - - -
29/07:00am 10.9 - - - 1017.9 - - - - - - - - -
29/06:30am 11.5 - - - 1017.8 - - - - - - - - -
29/06:00am 10.7 - - - 1017.7 - - - - - - - - -
29/05:30am 10.4 - - - 1017.8 - - - - - - - - -
29/05:00am 10.1 - - - 1017.9 - - - - - - - - -
29/04:30am 10.4 - - - 1017.9 - - - - - - - - -
29/04:00am 10.2 - - - 1018.1 - - - - - - - - -
29/03:30am 10.5 - - - 1018.3 - - - - - - - - -
29/03:00am 10.2 - - - 1018.7 - - - - - - - - -
29/02:30am 11.6 - - - 1018.8 - - - - - - - - -
29/02:00am 11.3 - - - 1019.1 - - - - - - - - -
29/01:30am 10.9 - - - 1019.6 - - - - - - - - -
29/01:00am 11.0 - - - 1019.8 - - - - - - - - -
29/12:30am 11.3 - - - 1019.9 - - - - - - - - -
29/12:00am 12.3 - - - 1020.0 - - - - - - - - -
 
Date/Time
WST
Temp
°C
Wind Pressure Rain since
9am
mm
Weather Cloud Vis
km
Sea
Height
m
Swell
Dir  Spd
kts
Gust
kts
hPa Trend Height
m
Period
s
Dir
28/11:30pm 13.2 - - - 1020.3 - - - - - - - - -
28/11:00pm 13.7 - - - 1020.5 - - - - - - - - -
28/10:30pm 14.1 - - - 1020.5 - - - - - - - - -
28/10:00pm 13.9 - - - 1020.7 - - - - - - - - -
28/09:30pm 13.7 - - - 1021.0 - - - - - - - - -
28/09:00pm 13.7 - - - 1020.9 - - - - - - - - -
28/08:30pm 14.5 - - - 1020.8 - - - - - - - - -
28/08:00pm 15.0 - - - 1020.8 - - - - - - - - -
28/07:30pm 15.7 - - - 1020.7 - - - - - - - - -
28/07:00pm 15.9 - - - 1020.7 - - - - - - - - -
28/06:30pm 16.0 - - - 1020.4 - - - - - - - - -
28/06:00pm 17.2 - - - 1020.2 - - - - - - - - -
28/05:30pm 17.6 - - - 1020.4 - - - - - - - - -
28/05:00pm 18.4 - - - 1020.0 - - - - - - - - -
28/04:30pm 19.9 - - - 1020.0 - - - - - - - - -
28/04:00pm 19.2 - - - 1019.8 - - - - - - - - -
28/03:30pm 19.4 - - - 1019.8 - - - - - - - - -

Other Formats:

Comma delimited format used in spreadsheet applications
http://www.bom.gov.au/fwo/IDW60701/IDW60701.95648.axf

JavaScript Object Notation format (JSON) in row-major order
http://www.bom.gov.au/fwo/IDW60701/IDW60701.95648.json